CW7427 Weather Reports


Display with metric or nautical units.
time (UTC)temp
F
wind
direction
speed
MPH
gust
MPH
rain 1hr
in
rain 24hr
in
rain mn
in
humidity
%
barometer
mb
20260510224230 62 175 0.0 0.0 0.04 0.06 0.06 94 1031.5
20260510223716 62 175 0.0 0.0 0.04 0.06 0.06 95 1031.6
20260510223210 62 175 0.0 0.0 0.04 0.06 0.06 95 1031.6
20260510222659 61 175 0.0 1.0 0.05 0.06 0.06 95 1031.5
20260510222157 60 175 0.0 1.0 0.06 0.06 0.06 95 1031.6
20260510221658 60 105 0.0 0.0 0.06 0.06 0.06 95 1031.6
20260510221154 60 105 0.0 0.0 0.06 0.06 0.06 95 1031.5
20260510220640 60 105 0.0 0.0 0.06 0.06 0.06 96 1031.4
20260510220133 58 105 0.0 0.0 0.06 0.06 0.06 95 1031.4
20260510215633 57 105 0.0 0.0 0.06 0.06 0.06 95 1031.3
20260510215344 57 105 0.0 0.0 0.06 0.06 0.06 95 1031.3
20260510214554 56 105 0.0 0.0 0.05 0.05 0.05 95 1031.3
20260510214310 56 105 0.0 0.0 0.01 0.01 0.02 94 1031.3
20260510213541 56 105 0.0 0.0 0.01 0.01 0.01 94 1031.1
20260510213039 56 105 0.0 0.0 0.01 0.01 0.01 94 1031.0
20260510212756 55 105 0.0 0.0 0.00 0.00 0.00 94 1031.0
20260510212030 55 105 0.0 0.0 0.00 0.00 0.00 94 1030.9
20260510211508 54 105 0.0 0.0 0.00 0.00 0.00 94 1030.9
20260510211209 54 105 0.0 0.0 0.00 0.00 0.00 94 1030.8
20260510210447 54 105 0.0 0.0 0.00 0.00 0.00 94 1030.7
20260510210206 53 105 0.0 0.0 0.00 0.00 0.00 94 1030.7
20260510205436 53 105 0.0 0.0 0.00 0.00 0.00 94 1030.6
20260510205153 53 105 0.0 0.0 0.00 0.00 0.00 93 1030.4
20260510204436 53 105 0.0 0.0 0.00 0.00 0.00 93 1030.4
20260510203923 53 105 0.0 0.0 0.00 0.00 0.00 93 1030.3
20260510203419 53 105 0.0 0.0 0.00 0.00 0.00 93 1030.2
20260510202854 53 105 0.0 0.0 0.00 0.00 0.00 93 1030.2
20260510202354 53 105 0.0 0.0 0.00 0.00 0.00 93 1030.1
20260510201850 53 105 0.0 0.0 0.00 0.00 0.00 93 1030.0
20260510201336 53 105 0.0 0.0 0.00 0.00 0.00 93 1030.0
20260510200832 52 105 0.0 0.0 0.00 0.00 0.00 93 1029.9
20260510200600 52 105 0.0 0.0 0.00 0.00 0.00 93 1029.8
20260510195810 52 105 0.0 0.0 0.00 0.00 0.00 93 1029.7
20260510195240 52 105 0.0 0.0 0.00 0.00 0.00 93 1029.7
20260510194736 52 105 0.0 0.0 0.00 0.00 0.00 93 1029.6
20260510194228 52 105 0.0 0.0 0.00 0.00 0.00 93 1029.5
20260510193709 52 105 0.0 0.0 0.00 0.00 0.00 93 1029.5
20260510193207 52 105 0.0 0.0 0.00 0.00 0.00 93 1029.4
20260510192631 52 105 0.0 0.0 0.00 0.00 0.00 93 1029.3
20260510192116 52 105 0.0 0.0 0.00 0.00 0.00 93 1029.3
20260510191616 52 105 0.0 0.0 0.00 0.00 0.00 93 1029.3
20260510191059 52 105 0.0 0.0 0.00 0.00 0.00 92 1029.2
20260510190547 52 105 0.0 0.0 0.00 0.00 0.00 93 1029.3
20260510190037 53 105 0.0 0.0 0.00 0.00 0.00 93 1029.3
20260510185538 53 105 0.0 0.0 0.00 0.00 0.00 92 1029.2
20260510185040 53 105 0.0 0.0 0.00 0.00 0.00 92 1029.2
20260510184534 53 105 0.0 0.0 0.00 0.00 0.00 92 1029.1
20260510184025 53 105 0.0 0.0 0.00 0.00 0.00 92 1029.1
20260510183509 53 105 0.0 0.0 0.00 0.00 0.00 92 1029.0
20260510182940 53 105 0.0 0.0 0.00 0.00 0.00 93 1029.0
20260510182431 53 105 0.0 0.0 0.00 0.00 0.00 92 1029.0
20260510181931 53 105 0.0 0.0 0.00 0.00 0.00 93 1028.9
20260510181430 53 105 0.0 0.0 0.00 0.00 0.00 92 1028.9
20260510181126 53 105 0.0 0.0 0.00 0.00 0.00 92 1028.9
20260510180358 54 105 0.0 0.0 0.00 0.00 0.00 92 1029.0
20260510175840 54 105 0.0 0.0 0.00 0.00 0.00 93 1028.9
20260510175339 54 105 0.0 0.0 0.00 0.00 0.00 93 1028.9
20260510174833 54 105 0.0 0.0 0.00 0.00 0.00 93 1028.9
20260510174528 54 105 0.0 0.0 0.00 0.00 0.00 93 1028.9
20260510173731 54 105 0.0 0.0 0.00 0.00 0.00 93 1028.9
20260510173215 54 105 0.0 0.0 0.00 0.00 0.00 92 1028.9
20260510172926 54 105 0.0 0.0 0.00 0.00 0.00 93 1028.9
20260510172119 54 105 0.0 0.0 0.00 0.00 0.00 92 1028.9
20260510171606 54 105 0.0 0.0 0.00 0.00 0.00 92 1028.9
20260510171054 54 105 0.0 0.0 0.00 0.00 0.00 93 1028.8
20260510170539 54 105 0.0 0.0 0.00 0.00 0.00 92 1028.8
20260510170257 54 105 0.0 0.0 0.00 0.00 0.00 92 1028.8
20260510165523 54 105 0.0 0.0 0.00 0.00 0.00 92 1028.9
20260510165024 53 105 0.0 0.0 0.00 0.00 0.00 92 1028.8
20260510164506 53 105 0.0 0.0 0.00 0.00 0.00 92 1028.8
20260510163957 53 105 0.0 0.0 0.00 0.00 0.00 92 1028.8
20260510163441 53 105 0.0 0.0 0.00 0.00 0.00 92 1028.8
20260510163158 53 105 0.0 0.0 0.00 0.00 0.00 92 1028.8
20260510162438 53 105 0.0 0.0 0.00 0.00 0.00 92 1028.9
20260510161935 53 105 0.0 0.0 0.00 0.00 0.00 92 1028.8
20260510161435 53 105 0.0 0.0 0.00 0.00 0.00 92 1028.7
20260510160936 53 105 0.0 0.0 0.00 0.00 0.00 92 1028.8
20260510160431 53 105 0.0 0.0 0.00 0.00 0.00 92 1028.7
20260510155921 53 105 0.0 0.0 0.00 0.00 0.00 92 1028.7
20260510155420 54 105 0.0 0.0 0.00 0.00 0.00 92 1028.8
20260510154857 54 105 0.0 0.0 0.00 0.00 0.00 91 1028.8
20260510154359 54 105 0.0 0.0 0.00 0.00 0.00 91 1028.8
20260510154050 54 105 0.0 0.0 0.00 0.00 0.00 91 1028.8
20260510153333 54 105 0.0 0.0 0.00 0.00 0.00 91 1028.8
20260510152815 54 105 0.0 0.0 0.00 0.00 0.00 91 1028.8
20260510152319 54 105 0.0 0.0 0.00 0.00 0.00 91 1028.8
20260510152314 54 105 0.0 0.0 0.00 0.00 0.00 91 1028.8
20260510151257 54 105 0.0 0.0 0.00 0.00 0.00 91 1028.9
20260510150753 54 105 0.0 0.0 0.00 0.00 0.00 91 1028.9
20260510150220 54 105 0.0 0.0 0.00 0.00 0.00 91 1028.9
20260510145633 54 105 0.0 0.0 0.00 0.00 0.00 91 1028.9
20260510145135 54 105 0.0 0.0 0.00 0.00 0.00 91 1028.9
20260510144851 54 105 0.0 0.0 0.00 0.00 0.00 91 1028.9
20260510144127 54 105 0.0 0.0 0.00 0.00 0.00 91 1029.0
20260510143614 54 105 0.0 0.0 0.00 0.00 0.00 91 1029.0
20260510143101 54 105 0.0 0.0 0.00 0.00 0.00 91 1028.9
20260510143029 54 105 0.0 0.0 0.00 0.00 0.00 91 1028.9
20260510142033 54 105 0.0 0.0 0.00 0.00 0.00 91 1029.0
20260510142025 54 105 0.0 0.0 0.00 0.00 0.00 90 1029.0
20260510141009 54 105 0.0 0.0 0.00 0.00 0.00 90 1029.0
20260510140502 54 105 0.0 0.0 0.00 0.00 0.00 90 1029.0
20260510140154 54 105 0.0 0.0 0.00 0.00 0.00 90 1029.0
20260510135425 54 105 0.0 0.0 0.00 0.00 0.00 90 1029.0
20260510135135 55 105 0.0 0.0 0.00 0.00 0.00 90 1029.0
20260510134358 55 105 0.0 0.0 0.00 0.00 0.00 90 1029.0
20260510133836 55 105 0.0 0.0 0.00 0.00 0.00 90 1029.1
20260510133316 55 105 0.0 0.0 0.00 0.00 0.00 91 1029.0
20260510132812 55 105 0.0 0.0 0.00 0.00 0.00 91 1029.0
20260510132241 55 105 0.0 0.0 0.00 0.00 0.00 91 1029.1
20260510131738 55 105 0.0 0.0 0.00 0.00 0.00 91 1029.1
20260510131449 55 105 0.0 0.0 0.00 0.00 0.00 91 1029.2
20260510130720 56 105 0.0 0.0 0.00 0.00 0.00 91 1029.2
20260510130219 56 105 0.0 0.0 0.00 0.00 0.00 91 1029.2
20260510125658 56 105 0.0 0.0 0.00 0.00 0.00 91 1029.2
20260510125400 56 105 0.0 0.0 0.00 0.00 0.00 91 1029.3
20260510124636 56 105 0.0 0.0 0.00 0.00 0.00 91 1029.3
20260510124133 56 105 0.0 0.0 0.00 0.00 0.00 91 1029.4
20260510123620 56 105 0.0 0.0 0.00 0.00 0.00 91 1029.5
20260510123120 56 105 0.0 0.0 0.00 0.00 0.00 91 1029.5
20260510122811 56 105 0.0 0.0 0.00 0.00 0.00 91 1029.5
20260510122039 56 105 0.0 0.0 0.00 0.00 0.00 91 1029.5
20260510121534 56 105 0.0 0.0 0.00 0.00 0.00 91 1029.7
20260510121245 56 105 0.0 0.0 0.00 0.00 0.00 91 1029.7
20260510120456 56 105 0.0 0.0 0.00 0.00 0.00 91 1029.7
20260510115956 56 105 0.0 0.0 0.00 0.00 0.00 90 1029.7
20260510115421 56 105 0.0 0.0 0.00 0.00 0.00 90 1029.7
20260510114920 56 105 0.0 0.0 0.00 0.00 0.00 90 1029.7
20260510114407 56 105 0.0 0.0 0.00 0.00 0.00 90 1029.7
20260510113904 56 105 0.0 0.0 0.00 0.00 0.00 90 1029.6
20260510113619 57 105 0.0 0.0 0.00 0.00 0.00 90 1029.6
20260510112854 57 105 0.0 0.0 0.00 0.00 0.00 89 1029.6
20260510112350 57 105 0.0 0.0 0.00 0.00 0.00 90 1029.6
20260510111850 57 105 0.0 0.0 0.00 0.00 0.00 89 1029.5
20260510111342 57 105 0.0 0.0 0.00 0.00 0.00 89 1029.6
20260510110839 57 105 0.0 0.0 0.00 0.00 0.00 89 1029.5
20260510110327 58 105 0.0 0.0 0.00 0.00 0.00 89 1029.5
20260510105808 58 105 0.0 0.0 0.00 0.00 0.00 88 1029.5
20260510105252 58 105 0.0 0.0 0.00 0.00 0.00 88 1029.4
20260510104746 58 105 0.0 0.0 0.00 0.00 0.00 88 1029.4
20260510104232 58 105 0.0 0.0 0.00 0.00 0.00 88 1029.4
20260510103731 58 105 0.0 0.0 0.00 0.00 0.00 88 1029.3
20260510103224 58 105 0.0 0.0 0.00 0.00 0.00 87 1029.2
20260510102715 58 105 0.0 0.0 0.00 0.00 0.00 87 1029.3
20260510102210 59 105 0.0 0.0 0.00 0.00 0.00 87 1029.2
20260510101702 59 105 0.0 0.0 0.00 0.00 0.00 86 1029.3
20260510101150 59 105 0.0 0.0 0.00 0.00 0.00 86 1029.4
20260510100650 59 105 0.0 0.0 0.00 0.00 0.00 86 1029.4
20260510100141 59 105 0.0 0.0 0.00 0.00 0.00 85 1029.3
20260510095640 60 105 0.0 0.0 0.00 0.00 0.00 85 1029.3
20260510095140 60 105 0.0 0.0 0.00 0.00 0.00 84 1029.2
20260510094638 60 105 0.0 0.0 0.00 0.00 0.00 83 1029.2
20260510094353 61 105 0.0 0.0 0.00 0.00 0.00 83 1029.1
20260510093630 61 105 0.0 0.0 0.00 0.00 0.00 83 1029.1
20260510093102 61 105 0.0 0.0 0.00 0.00 0.00 83 1029.0
20260510092540 61 105 0.0 0.0 0.00 0.00 0.00 82 1029.0
20260510092030 62 105 0.0 0.0 0.00 0.00 0.00 82 1028.9
20260510091520 62 105 0.0 0.0 0.00 0.00 0.00 82 1028.7
20260510091005 62 105 0.0 0.0 0.00 0.00 0.00 81 1028.6
20260510090422 62 105 0.0 0.0 0.00 0.00 0.00 81 1028.7
20260510085902 62 105 0.0 0.0 0.00 0.00 0.00 81 1028.6
20260510085402 62 105 0.0 0.0 0.00 0.00 0.00 81 1028.5
20260510084838 63 105 0.0 1.0 0.00 0.00 0.00 81 1028.4
20260510084330 63 105 0.0 1.0 0.00 0.00 0.00 81 1028.3
20260510083828 63 105 0.0 1.0 0.00 0.00 0.00 81 1028.2
20260510083757 63 105 0.0 1.0 0.00 0.00 0.00 80 1028.2
20260510082813 63 105 0.0 1.0 0.00 0.00 0.00 80 1028.2
20260510082501 64 105 0.0 2.0 0.00 0.00 0.00 80 1028.1
20260510081738 64 105 0.0 2.0 0.00 0.00 0.00 80 1028.0
20260510081213 64 105 0.0 2.0 0.00 0.00 0.00 79 1028.2
20260510080701 64 102 0.0 4.0 0.00 0.00 0.00 79 1028.1
20260510080203 64 134 0.0 5.0 0.00 0.00 0.00 79 1028.0
20260510075659 64 134 0.0 5.0 0.00 0.00 0.00 79 1028.0
20260510075200 65 134 0.0 5.0 0.00 0.00 0.00 79 1027.9
20260510074925 65 134 1.0 6.0 0.00 0.00 0.00 79 1027.9
20260510074156 65 136 1.0 6.0 0.00 0.00 0.00 78 1027.8
20260510073657 65 95 1.0 6.0 0.00 0.00 0.00 78 1027.8
20260510073145 65 143 1.0 6.0 0.00 0.00 0.00 78 1027.7
20260510072904 65 92 0.0 4.0 0.00 0.00 0.00 78 1027.6
20260510072129 65 92 0.0 5.0 0.00 0.00 0.00 78 1027.6
20260510072113 65 90 1.0 5.0 0.00 0.00 0.00 78 1027.5
20260510071129 66 110 1.0 5.0 0.00 0.00 0.00 77 1027.5
20260510070627 66 110 0.0 5.0 0.00 0.00 0.00 77 1027.4
20260510070121 66 90 0.0 3.0 0.00 0.00 0.00 76 1027.4
20260510070058 66 90 0.0 3.0 0.00 0.00 0.00 76 1027.3
20260510065332 66 90 1.0 8.0 0.00 0.00 0.00 76 1027.2
20260510064557 67 90 1.0 8.0 0.00 0.00 0.00 75 1027.2
20260510064047 67 49 1.0 7.0 0.00 0.00 0.00 75 1027.2
20260510063543 67 102 2.0 7.0 0.00 0.00 0.00 74 1027.2
20260510063039 67 103 1.0 5.0 0.00 0.00 0.00 73 1027.1
20260510062530 67 81 1.0 5.0 0.00 0.00 0.00 73 1026.9
20260510062021 67 90 1.0 5.0 0.00 0.00 0.00 72 1026.8
20260510061734 67 76 1.0 7.0 0.00 0.00 0.00 71 1026.8
20260510061011 67 105 2.0 7.0 0.00 0.00 0.00 71 1026.8
20260510060458 68 145 2.0 7.0 0.00 0.00 0.00 70 1026.7
20260510055952 68 67 1.0 6.0 0.00 0.00 0.00 71 1026.7
20260510055700 68 104 2.0 9.0 0.00 0.00 0.00 70 1026.4
20260510054931 68 78 2.0 9.0 0.00 0.00 0.00 70 1026.4
20260510054653 68 94 2.0 7.0 0.00 0.00 0.00 68 1026.3
20260510054158 68 111 2.0 8.0 0.00 0.00 0.00 67 1026.2
20260510053409 68 34 2.0 8.0 0.00 0.00 0.00 66 1026.2
20260510052903 68 103 1.0 8.0 0.00 0.00 0.00 65 1026.2
20260510052353 69 96 2.0 8.0 0.00 0.00 0.00 65 1026.1
20260510052327 69 80 2.0 8.0 0.00 0.00 0.00 64 1026.1
20260510051557 69 68 1.0 7.0 0.00 0.00 0.00 64 1026.1
20260510051044 69 119 1.0 8.0 0.00 0.00 0.00 64 1026.1
20260510050313 69 117 1.0 8.0 0.00 0.00 0.00 64 1026.0
20260510045804 69 118 1.0 6.0 0.00 0.00 0.00 65 1026.0
20260510045254 69 74 1.0 7.0 0.00 0.00 0.00 65 1025.9
20260510044742 69 108 1.0 7.0 0.00 0.00 0.00 64 1025.9
20260510044242 69 102 1.0 8.0 0.00 0.00 0.00 64 1025.9
20260510043954 70 91 1.0 8.0 0.00 0.00 0.00 64 1025.9
20260510043223 70 78 1.0 4.0 0.00 0.00 0.00 63 1025.8
20260510042711 70 77 1.0 5.0 0.00 0.00 0.00 63 1025.8
20260510042207 70 77 1.0 9.0 0.00 0.00 0.00 62 1025.8
20260510041656 70 90 1.0 5.0 0.00 0.00 0.00 62 1025.8
20260510041145 71 319 2.0 7.0 0.00 0.00 0.00 62 1025.8
20260510040635 71 61 1.0 7.0 0.00 0.00 0.00 62 1025.8
20260510040130 71 51 0.0 5.0 0.00 0.00 0.00 60 1025.9
20260510035846 71 48 0.0 1.0 0.00 0.00 0.00 59 1025.8
20260510035118 71 48 1.0 6.0 0.00 0.00 0.00 59 1025.8
20260510034602 71 48 1.0 6.0 0.00 0.00 0.00 58 1025.8
20260510034053 71 92 0.0 2.0 0.00 0.00 0.00 59 1025.8
20260510033545 71 92 0.0 2.0 0.00 0.00 0.00 58 1025.8
20260510033041 71 92 0.0 1.0 0.00 0.00 0.00 59 1025.8
20260510032537 71 82 0.0 6.0 0.00 0.00 0.00 59 1025.8
20260510032021 71 82 0.0 6.0 0.00 0.00 0.00 60 1025.8
20260510031511 71 80 0.0 5.0 0.00 0.00 0.00 58 1025.9
20260510031006 71 80 1.0 5.0 0.00 0.00 0.00 59 1026.0
20260510030455 71 80 1.0 5.0 0.00 0.00 0.00 58 1026.0
20260510025948 71 81 1.0 5.0 0.00 0.00 0.00 58 1026.1
20260510025443 71 66 1.0 5.0 0.00 0.00 0.00 58 1026.1
20260510024933 71 65 0.0 2.0 0.00 0.00 0.00 59 1026.1
20260510024423 71 65 0.0 2.0 0.00 0.00 0.00 58 1026.2
20260510023917 71 65 0.0 2.0 0.00 0.00 0.00 59 1026.2
20260510023417 71 65 0.0 2.0 0.00 0.00 0.00 59 1026.3
20260510022857 71 65 0.0 1.0 0.00 0.00 0.00 60 1026.4
20260510022351 71 65 0.0 1.0 0.00 0.00 0.00 60 1026.6
20260510021846 71 65 0.0 3.0 0.00 0.00 0.00 59 1026.7
20260510021335 70 65 0.0 3.0 0.00 0.00 0.00 60 1026.8
20260510020827 69 65 0.0 0.0 0.00 0.00 0.00 63 1026.8
20260510020319 69 65 0.0 1.0 0.00 0.00 0.00 61 1027.0
20260510015814 69 65 0.0 2.0 0.00 0.00 0.00 62 1027.0
20260510015306 69 66 0.0 6.0 0.00 0.00 0.00 61 1027.0
20260510014757 70 66 0.0 6.0 0.00 0.00 0.00 61 1027.1
20260510014244 69 59 0.0 2.0 0.00 0.00 0.00 63 1027.2
20260510013744 69 59 0.0 2.0 0.00 0.00 0.00 63 1027.1
20260510013459 69 59 0.0 2.0 0.00 0.00 0.00 61 1027.2
20260510012736 69 59 0.0 2.0 0.00 0.00 0.00 63 1027.3
20260510012228 69 59 0.0 1.0 0.00 0.00 0.00 64 1027.3
20260510011717 68 59 0.0 2.0 0.00 0.00 0.00 64 1027.4
20260510011205 68 59 0.0 2.0 0.00 0.00 0.00 62 1027.5
20260510010635 68 59 0.0 1.0 0.00 0.00 0.00 66 1027.5
20260510010121 67 59 0.0 2.0 0.00 0.00 0.00 63 1027.6
20260510005607 67 59 0.0 2.0 0.00 0.00 0.00 65 1027.7
20260510005102 67 59 0.0 0.0 0.00 0.00 0.00 65 1027.7
20260510004603 67 59 0.0 0.0 0.00 0.00 0.00 65 1027.8
20260510004059 67 59 0.0 1.0 0.00 0.00 0.00 65 1027.8
20260510003825 67 59 0.0 1.0 0.00 0.00 0.00 67 1027.8
20260510003058 66 59 0.0 2.0 0.00 0.00 0.00 67 1027.8
20260510002559 66 59 0.0 2.0 0.00 0.00 0.00 67 1027.8
20260510002054 65 59 0.0 0.0 0.00 0.00 0.00 68 1027.7
20260510001821 65 59 0.0 0.0 0.00 0.00 0.00 68 1027.6
20260510001043 65 59 0.0 0.0 0.00 0.00 0.00 69 1027.6
20260510000527 64 59 0.0 1.0 0.00 0.00 0.00 71 1027.5
20260510000014 63 59 0.0 1.0 0.00 0.00 0.00 71 1027.5
20260509235714 62 59 0.0 1.0 0.00 0.00 0.00 74 1027.4
20260509234942 62 59 0.0 0.0 0.00 0.00 0.00 73 1027.5
20260509234437 62 59 0.0 0.0 0.00 0.00 0.00 73 1027.5
20260509233935 62 59 0.0 0.0 0.00 0.00 0.00 74 1027.5
20260509233655 62 73 0.0 0.0 0.00 0.00 0.00 73 1027.4
20260509232907 62 73 0.0 0.0 0.00 0.00 0.00 75 1027.4
20260509232401 62 73 0.0 0.0 0.00 0.00 0.00 76 1027.3
20260509231854 61 73 0.0 0.0 0.00 0.00 0.00 77 1027.3
20260509231346 60 73 0.0 0.0 0.00 0.00 0.00 77 1027.3
20260509230834 60 73 0.0 0.0 0.00 0.00 0.00 79 1027.3
20260509230318 60 73 0.0 0.0 0.00 0.00 0.00 80 1027.3
20260509225812 59 73 0.0 0.0 0.00 0.00 0.00 79 1027.4
20260509225305 59 73 0.0 0.0 0.00 0.00 0.00 80 1027.4
20260509224753 58 73 0.0 0.0 0.00 0.00 0.00 82 1027.4